#timestamp,LO_Frequency,Hit,StdDev 
1522922415.6,286047005.2,N
1522922435.5,286047005.4,N
1522922455.3,286047003.0,N
1522922475.1,286047001.5,N
1522922495.9,286047002.2,N
1522922515.7,286047002.3,N
1522922535.6,286047004.4,N
1522922555.4,286047004.4,N
1522922575.2,286047002.1,N
1522922595.1,286047002.7,N
1522922596.0,286047002.7,N
1522922615.8,286047000.9,N
1522922635.6,286047001.2,N
1522922655.5,286046998.4,N
1522922675.3,286047001.2,N
1522922695.2,286047000.4,N
1522922715.9,286046998.1,N
1522922735.7,286046999.9,N
1522922755.6,286047002.2,N
1522922775.4,286047002.1,N
1522922795.2,286046999.9,N
1522922815.1,286046998.1,N
1522922816.0,286046998.1,N
1522922835.8,286046999.5,N
1522922855.7,286046996.8,N
1522922875.5,286046994.9,N
1522922895.3,286046995.8,N
1522922915.2,286046995.6,N
1522922935.0,286046997.7,N
1522922935.9,286046997.7,N
1522922955.8,286046996.5,N
1522922975.6,286046999.5,N
1522922995.4,286046997.6,N
1522923015.3,286046997.9,N
1522923035.1,286046997.7,N
1522923055.8,286046997.6,N
1522923075.7,286046995.0,N
1522923095.5,286046995.1,N
1522923115.4,286046995.5,N
1522923135.2,286046995.3,N
1522923155.0,286046996.7,N
1522923156.0,286046996.7,N
1522923175.8,286046997.1,N
1522923195.6,286046997.7,N
1522923215.5,286046995.0,N
1522923235.3,286046995.5,N
1522923255.1,286046995.7,N
1522923305.9,286046995.2,E
1522923315.8,286046999.1,N
1522923335.7,286047000.9,P
1522923355.5,286046998.1,N
1522923375.3,286046998.7,N
1522923395.2,286046998.1,N
1522923415.0,286047001.1,N
1522923415.9,286047001.1,N
1522923435.8,286046999.1,N
1522923455.6,286046998.9,N
1522923475.4,286047001.0,N
1522923495.3,286047001.2,N
1522923515.1,286047000.7,N
1522923535.9,286046998.1,N
1522923555.7,286047000.0,N
1522923575.5,286047000.7,N
1522923595.4,286047000.6,N
1522923615.2,286047001.2,N
1522923635.0,286046998.3,N
1522923635.9,286046998.3,N
1522923655.8,286046999.0,N
1522923675.6,286046998.7,N
1522923695.5,286046998.4,N
1522923715.3,286046996.7,N
1522923735.2,286046997.2,N
1522923755.9,286046997.8,N
1522923775.7,286046997.7,N
1522923795.6,286046997.5,N
1522923815.4,286046997.8,N
1522923835.2,286046999.1,N
1522923855.1,286046999.6,N
1522923856.0,286046999.6,N
1522923875.8,286046999.5,N
1522923895.7,286046996.7,N
1522923915.5,286046997.2,N
1522923935.3,286046997.8,N
1522923955.2,286046997.9,N
1522923975.0,286046996.8,N
1522923975.9,286046996.8,N
1522923995.8,286046996.7,N
1522924015.6,286046996.9,N
1522924035.4,286046998.6,N
1522924055.3,286047001.2,N
1522924075.1,286046998.1,N
1522924095.9,286047000.4,N
1522924115.7,286047001.1,N
1522924135.5,286046998.4,N
1522924155.4,286046998.5,N
1522924175.2,286046998.2,N
1522924195.0,286046999.4,N
1522924196.0,286046999.4,N
1522924215.8,286046999.2,N
1522924235.6,286046998.8,N
1522924255.5,286046999.0,N
1522924275.3,286046999.3,N
1522924295.1,286046998.3,N
1522924315.9,286046999.3,N
1522924335.7,286046998.3,N
1522924355.6,286046998.6,N
1522924375.4,286046998.9,N
1522924395.2,286046999.2,N
1522924415.1,286046997.0,N
1522924416.0,286046997.0,N
1522924435.8,286046996.6,N
1522924455.6,286046999.6,N
1522924475.5,286046999.2,N
1522924495.3,286046996.8,N
1522924515.2,286046997.1,N
1522924535.9,286046999.4,N
1522924555.7,286046996.9,N
1522924575.6,286046997.7,N
1522924595.4,286046997.1,N
1522924615.2,286046997.2,N
1522924635.1,286046995.1,Y
1522924636.0,286046995.1,P
1522924655.8,286046996.7,N
1522924675.7,286046999.2,N
1522924695.5,286046999.1,N
1522924715.3,286046998.7,N
1522924735.2,286047000.7,N
1522924755.0,286047001.0,N
1522924755.9,286047001.0,N
1522924775.8,286047002.7,N
1522924795.6,286047000.4,N
1522924815.4,286047000.6,N
1522924835.3,286047000.9,N
1522924855.1,286047000.8,N
1522924875.8,286047000.9,N
1522924895.7,286046999.8,N
1522924915.5,286046998.1,N
1522924935.4,286047000.7,N
1522924955.2,286046998.2,N
1522924975.0,286047000.8,N
1522924975.9,286047000.8,N
1522924995.8,286047001.1,N
1522925015.6,286047001.0,N
1522925035.5,286047000.2,N
1522925055.3,286046999.9,N
1522925075.1,286047000.4,N
1522925095.9,286047000.9,N
1522925115.7,286046998.6,N
1522925135.5,286046998.9,N
1522925155.4,286046998.9,N
1522925175.2,286046999.0,N
1522925195.1,286047001.1,N
1522925196.0,286047001.1,N
1522925215.8,286046998.9,N
1522925235.6,286046998.8,N
1522925255.5,286047000.7,N
1522925275.3,286047002.2,N
1522925295.2,286047000.1,N
1522925315.9,286047000.3,N
1522925335.7,286047000.3,N
1522925355.6,286046998.1,N
1522925375.4,286046998.9,N
1522925395.2,286046996.5,Y
1522925415.1,286046999.3,P
1522925416.0,286046999.3,N
1522925435.8,286046999.4,N
1522925455.7,286046998.2,Y
1522925475.5,286047002.8,P
1522925495.3,286047000.5,N
1522925515.2,286047000.6,N
1522925535.0,286047000.0,N
1522925535.9,286047000.0,N
1522925555.8,286047001.0,N
1522925575.6,286046998.2,N
1522925595.4,286046998.2,N
1522925615.3,286046999.3,N
1522925635.1,286046998.8,N
1522925655.8,286047001.2,N
1522925675.7,286046999.9,N
1522925695.5,286046999.9,N
1522925715.4,286047000.2,N
1522925735.2,286047000.4,N
1522925755.0,286046999.7,N
1522925755.9,286046999.7,N
1522925775.8,286047002.4,N
1522925795.6,286047000.9,N
1522925815.4,286047000.0,N
1522925835.3,286046998.2,N
1522925855.1,286046998.5,N
1522925875.9,286046998.7,N
1522925895.7,286046998.4,N
1522925915.5,286047000.8,N
1522925935.4,286046999.7,N
1522925955.2,286047000.1,N
1522925975.1,286047001.9,N
1522925976.0,286047001.9,N
1522925995.8,286047000.3,N
